San Jose, Costa Rica

3:42 AM CST on May 24, 2017 (GMT -0600)
Juan Santamaria International

Weather History for MROC - December, 2010

Change the Weather History Date:

Monday, December 27, 2010

  Actual Average Record
Temperature  
Mean Temperature 70 °F -  
Max Temperature 77 °F 80 °F 87 °F (1997)
Min Temperature 63 °F 63 °F 60 °F (1997)
Cooling Degree Days 5    
Growing Degree Days 20 (Base 50)    
Moisture  
Dew Point 58 °F    
Average Humidity 69    
Maximum Humidity 83    
Minimum Humidity 52    
Precipitation  
Precipitation 0.00 in 0.01 in - ()
Sea Level Pressure  
Sea Level Pressure 30.00 in    
Wind  
Wind Speed 17 mph ()    
Max Wind Speed 23 mph    
Max Gust Speed 39 mph    
Visibility 7.0 miles    
Events      
Averages and records for this station are not official NWS values.
T = Trace of Precipitation, MM = Missing Value Source: Averaged Metar Reports

Daily Weather History Graph

Daily Weather History Graph

Search for Another Location

Airport or City:

Trip Planner

Search our weather history database for the weather conditions in past years. The results will help you decide how hot, cold, wet, or windy it might be!

Date:

Astronomy

Dec. 27, 2010 Rise Set
Actual Time 5:51 AM CST 5:24 PM CST
Civil Twilight 5:28 AM CST 5:47 PM CST
Nautical Twilight 5:02 AM CST 6:13 PM CST
Astronomical Twilight 4:36 AM CST 6:39 PM CST
Moon 11:34 PM CST (12/27) 10:59 AM CST (12/27)
Length of Visible Light 12h 18m
Length of Day
11h 32m
Waning Gibbous, 55% of the Moon is Illuminated
Dec 27
Waning Gibbous
Dec 27
Last Quarter
Jan 4
New
Jan 12
First Quarter
Jan 19
Full

Hourly Weather History & Observations

Time (CST) Temp. Dew Point Humidity Pressure Visibility Wind Dir Wind Speed Gust Speed Precip Events Conditions
12:00 AM 64 °F 57 °F 72% 29.89 in 12 mi ESE 18.4 mph - -   Scattered Clouds
12:00 AM 64.4 °F 57.2 °F 77% 30.04 in 6.2 mi ESE 18.4 mph 31.1 mph N/A   Scattered Clouds
1:00 AM 64.4 °F 57.2 °F 77% 30.04 in 6.2 mi ESE 19.6 mph 31.1 mph N/A   Scattered Clouds
2:00 AM 64.4 °F 57.2 °F 77% 30.01 in 6.2 mi ESE 18.4 mph 31.1 mph N/A   Scattered Clouds
3:00 AM 64 °F 57 °F 72% 29.87 in 12 mi ESE 20.7 mph - -   Scattered Clouds
3:00 AM 64.4 °F 57.2 °F 77% 29.99 in 6.2 mi ESE 20.7 mph 34.5 mph N/A   Scattered Clouds
4:00 AM 64.4 °F 57.2 °F 77% 30.00 in - North - - N/A   Scattered Clouds
5:00 AM 64.4 °F 57.2 °F 77% 30.02 in 6.2 mi ESE 23.0 mph 35.7 mph N/A   Scattered Clouds
6:00 AM 64 °F 59 °F 79% 29.91 in 9 mi ESE 19.6 mph - -   Scattered Clouds
6:00 AM 64.4 °F 59.0 °F 83% 30.03 in 6.2 mi ESE 19.6 mph 32.2 mph N/A   Scattered Clouds
7:00 AM 66.2 °F 59.0 °F 78% 30.04 in - ESE 17.3 mph 33.4 mph N/A   Light Drizzle
8:00 AM 69.8 °F 59.0 °F 68% 30.07 in 6.2 mi ESE 20.7 mph 39.1 mph N/A   Partly Cloudy
9:00 AM 72 °F 59 °F 55% 29.90 in 6 mi ESE 19.6 mph - -   Scattered Clouds
9:00 AM 71.6 °F 59.0 °F 64% 30.07 in 6.2 mi ESE 19.6 mph 33.4 mph N/A   Partly Cloudy
10:00 AM 75.2 °F 59.0 °F 57% 30.06 in 6.2 mi ESE 18.4 mph 32.2 mph N/A   Partly Cloudy
11:00 AM 75.2 °F 59.0 °F 57% 30.04 in 6.2 mi ESE 20.7 mph 36.8 mph N/A   Partly Cloudy
11:05 AM 75.2 °F 60.8 °F 61% 30.03 in 6.2 mi ESE 20.7 mph 36.8 mph N/A   Partly Cloudy
11:06 AM 75.2 °F 60.8 °F 61% 30.03 in 6.2 mi West 811.3 mph - N/A   Partly Cloudy
11:13 AM 75.2 °F 60.8 °F 61% 30.03 in 6.2 mi West 811.3 mph - N/A   Partly Cloudy
12:00 PM 75 °F 61 °F 52% 29.87 in 12 mi ESE 20.7 mph - -   Scattered Clouds
12:00 PM 75.2 °F 60.8 °F 61% 30.03 in 6.2 mi ESE 20.7 mph 34.5 mph N/A   Partly Cloudy
1:00 PM 77.0 °F 59.0 °F 54% 30.00 in 6.2 mi East 21.9 mph 33.4 mph N/A   Partly Cloudy
2:00 PM 75.2 °F 60.8 °F 61% 29.98 in 6.2 mi East 17.3 mph 28.8 mph N/A   Mostly Cloudy
3:00 PM 75.2 °F 59.0 °F 57% 29.98 in 6.2 mi East 6.9 mph 23.0 mph N/A   Mostly Cloudy
4:00 PM 71.6 °F 57.2 °F 60% 29.98 in 6.2 mi East 8.1 mph - N/A   Mostly Cloudy
5:00 PM 68.0 °F 55.4 °F 64% 29.98 in 6.2 mi ESE 13.8 mph 25.3 mph N/A   Mostly Cloudy
6:00 PM 64.4 °F 57.2 °F 77% 30.01 in 6.2 mi ESE 15.0 mph - N/A   Scattered Clouds
7:00 PM 64.4 °F 57.2 °F 77% 30.02 in 6.2 mi ESE 17.3 mph 28.8 mph N/A   Scattered Clouds
8:00 PM 66.2 °F 57.2 °F 73% 30.03 in 6.2 mi ESE 17.3 mph 28.8 mph N/A   Scattered Clouds
9:00 PM 66 °F 57 °F 66% 29.93 in 12 mi ESE 19.6 mph - -   Scattered Clouds
9:00 PM 66.2 °F 57.2 °F 73% 30.06 in 6.2 mi ESE 19.6 mph 32.2 mph N/A   Scattered Clouds
10:00 PM 66.2 °F 59.0 °F 78% 30.05 in 6.2 mi ESE 16.1 mph 28.8 mph N/A   Scattered Clouds
11:00 PM 64.4 °F 59.0 °F 83% 30.03 in 6.2 mi ESE 15.0 mph 26.5 mph N/A   Scattered Clouds